Skip Page Navigation
NASA JPL Caltech
NASA Logo - Jet Propulsion Laboratory + View the NASA Portal
+ Center for Near-Earth Object Studies
JPL Home Earth Solar System Stars & Galaxies Technology
JPL Solar System Dynamics
BODIES ORBITS EPHEMERIDES TOOLS PHYSICAL DATA DISCOVERY FAQ SITE MAP
JPL Small-Body Database Browser
Search: [ help ]  
118552 (2000 EZ164)
Classification: Main-belt Asteroid          SPK-ID: 2118552
Ephemeris | Orbit Diagram | Orbital Elements | Mission Design | Physical Parameters | Discovery Circumstances | Close-Approach Data ]

[ show orbit diagram ]
Orbital Elements at Epoch 2459200.5 (2020-Dec-17.0) TDB
Reference: JPL 15 (heliocentric ecliptic J2000)
 Element Value Uncertainty (1-sigma)   Units 
e .2008151910534986 3.4306e-08  
a 2.383391068255078 1.1904e-08 au
q 1.904769935528232 8.405e-08 au
i 2.481940474844768 4.5891e-06 deg
node 149.8158053758586 0.00012914 deg
peri 141.4453071882383 0.00013019 deg
M 135.1101600918865 1.8139e-05 deg
tp 2458696.097888500583
(2019-Jul-31.59788850)
6.6307e-05 TDB
period 1343.975612317362
3.68
1.0069e-05
2.757e-08
d
yr
n .2678620033731614 2.0068e-09 deg/d
Q 2.862012200981923 1.4295e-08 au
  Orbit Determination Parameters
   # obs. used (total)      481  
   data-arc span      9123 days (24.98 yr)  
   first obs. used      1996-02-10  
   last obs. used      2021-02-01  
   planetary ephem.      DE441  
   SB-pert. ephem.      SB441-N16  
   condition code      0  
   norm. resid. RMS      .6016  
   source      ORB  
   producer      Otto Matic  
   solution date      2021-Apr-13 16:57:47  

Additional Information
 Earth MOID = .887387 au 
 Jupiter MOID = 2.32493 au 
 T_jup = 3.508 
[ show covariance matrix ]

Ephemeris | Orbit Diagram | Orbital Elements | Mission Design | Physical Parameters | Discovery Circumstances | Close-Approach Data ]

Physical Parameter Table
Parameter Symbol Value Units Sigma Reference Notes
absolute magnitude H 16.5   n/a MPO436570  

118552 (2000 EZ164)          Discovered 2000-Mar-03 by LINEAR at Socorro
Reference: 20051116/Numbers.arcLast Updated: 2005-11-21

[ show close-approach data ]
Alternate Designations
 2000 EZ164 = 2001 SQ27 
Ephemeris | Orbit Diagram | Orbital Elements | Mission Design | Physical Parameters | Discovery Circumstances | Close-Approach Data ]
ABOUT SSD CREDITS/AWARDS PRIVACY/COPYRIGHT GLOSSARY LINKS
FirstGov 2021-Apr-15 12:34 UT
(server date/time)  
NASA Home Page
Site Manager:   Ryan S. Park
Webmaster  Alan B. Chamberlin